Previsão horária em Plodorodnyy

Hoje, 6 Março, Sábado

Tempo Temperatura Precipitação Vento Pressão Humidade
00:00 -10°C° 0 mm 1 m/s 737 mmHg 95%
01:00 -11°C° 0 mm 1 m/s 737 mmHg 95%
02:00 -12°C° 0 mm 1 m/s 738 mmHg 96%
03:00 -12°C° 0 mm 1 m/s 738 mmHg 96%
04:00 -13°C° 0 mm 1 m/s 738 mmHg 97%
05:00 -13°C° 0 mm 1 m/s 738 mmHg 96%
06:00 -13°C° 0 mm 1 m/s 738 mmHg 96%
07:00 -13°C° 0 mm 1 m/s 739 mmHg 96%
08:00 -12°C° 0 mm 1 m/s 739 mmHg 94%
09:00 -11°C° 0 mm 1 m/s 739 mmHg 92%
10:00 -9°C° 0 mm 1 m/s 740 mmHg 90%
11:00 -8°C° 0 mm 1 m/s 740 mmHg 90%
12:00 -7°C° 0 mm 1 m/s 740 mmHg 89%
13:00 -7°C° 0 mm 2 m/s 740 mmHg 88%
14:00 -7°C° 0 mm 2 m/s 740 mmHg 90%
15:00 -6°C° 0 mm 1 m/s 739 mmHg 92%
16:00 -6°C° 0 mm 1 m/s 739 mmHg 94%
17:00 -7°C° 0 mm 1 m/s 739 mmHg 94%
18:00 -8°C° 0 mm 1 m/s 739 mmHg 95%
19:00 -9°C° 0 mm 1 m/s 739 mmHg 95%
20:00 -9°C° 0 mm 1 m/s 739 mmHg 95%
21:00 -9°C° 0 mm 1 m/s 739 mmHg 95%
22:00 -9°C° 0 mm 1 m/s 739 mmHg 95%
23:00 -9°C° 0 mm 1 m/s 738 mmHg 95%

Amanhã, 7 Março, Domingo

Tempo Temperatura Precipitação Vento Pressão Humidade
00:00 -12°C° 0 mm 2 m/s 738 mmHg 94%
01:00 -12°C° 0 mm 2 m/s 738 mmHg 94%
02:00 -13°C° 0 mm 2 m/s 737 mmHg 93%
03:00 -13°C° 0 mm 2 m/s 737 mmHg 93%
04:00 -14°C° 0 mm 3 m/s 737 mmHg 92%
05:00 -14°C° 0 mm 3 m/s 736 mmHg 92%
06:00 -15°C° 0 mm 3 m/s 736 mmHg 92%
07:00 -15°C° 0 mm 3 m/s 736 mmHg 91%
08:00 -15°C° 0 mm 4 m/s 736 mmHg 90%
09:00 -15°C° 0 mm 4 m/s 736 mmHg 89%
10:00 -15°C° 0 mm 4 m/s 736 mmHg 88%
11:00 -15°C° 0 mm 5 m/s 736 mmHg 87%
12:00 -15°C° 0 mm 5 m/s 736 mmHg 85%
13:00 -14°C° 0 mm 5 m/s 736 mmHg 84%
14:00 -15°C° 0 mm 5 m/s 737 mmHg 86%
15:00 -15°C° 0 mm 4 m/s 737 mmHg 87%
16:00 -14°C° 0 mm 3 m/s 737 mmHg 89%
17:00 -16°C° 0 mm 3 m/s 737 mmHg 91%
18:00 -17°C° 0 mm 3 m/s 738 mmHg 93%
19:00 -17°C° 0 mm 2 m/s 738 mmHg 95%
20:00 -18°C° 0 mm 2 m/s 738 mmHg 94%
21:00 -19°C° 0 mm 3 m/s 738 mmHg 94%
22:00 -21°C° 0 mm 3 m/s 738 mmHg 93%
23:00 -21°C° 0 mm 3 m/s 738 mmHg 94%

Depois de amanhã, 8 Março, Segunda-feira

Tempo Temperatura Precipitação Vento Pressão Humidade
00:00 -20°C° 0 mm 4 m/s 738 mmHg 95%
01:00 -20°C° 0 mm 4 m/s 737 mmHg 97%
02:00 -20°C° 0 mm 5 m/s 737 mmHg 95%
03:00 -18°C° 0 mm 6 m/s 737 mmHg 94%
04:00 -18°C° 0 mm 7 m/s 736 mmHg 93%
05:00 -17°C° 0.1 mm 8 m/s 736 mmHg 93%
06:00 -16°C° 0.1 mm 8 m/s 735 mmHg 93%
07:00 -15°C° 0.1 mm 9 m/s 734 mmHg 92%
08:00 -14°C° 0.3 mm 9 m/s 734 mmHg 92%
09:00 -13°C° 0.3 mm 10 m/s 734 mmHg 92%
10:00 -12°C° 0.3 mm 10 m/s 734 mmHg 92%
11:00 -10°C° 0.2 mm 10 m/s 734 mmHg 93%
12:00 -9°C° 0.2 mm 9 m/s 734 mmHg 93%
13:00 -8°C° 0.2 mm 8 m/s 734 mmHg 93%
14:00 -7°C° 0.2 mm 8 m/s 734 mmHg 93%
15:00 -7°C° 0.2 mm 8 m/s 734 mmHg 93%
16:00 -7°C° 0.2 mm 8 m/s 734 mmHg 94%
17:00 -7°C° 0.2 mm 8 m/s 734 mmHg 94%
18:00 -7°C° 0.2 mm 8 m/s 733 mmHg 93%
19:00 -8°C° 0.2 mm 9 m/s 733 mmHg 93%
20:00 -8°C° 0.2 mm 9 m/s 733 mmHg 93%
21:00 -6°C° 0.2 mm 9 m/s 732 mmHg 93%
22:00 -6°C° 0.2 mm 9 m/s 732 mmHg 93%
23:00 -6°C° 0.3 mm 9 m/s 732 mmHg 93%

9 Março, Terça-feira

Tempo Temperatura Precipitação Vento Pressão Humidade
00:00 -6°C° 0.3 mm 9 m/s 732 mmHg 94%
01:00 -6°C° 0.3 mm 9 m/s 732 mmHg 94%
02:00 -8°C° 0.3 mm 8 m/s 732 mmHg 89%
03:00 -11°C° 0.3 mm 7 m/s 732 mmHg 85%
04:00 -12°C° 0.3 mm 6 m/s 733 mmHg 80%
05:00 -14°C° 0 mm 6 m/s 733 mmHg 84%
06:00 -16°C° 0 mm 6 m/s 734 mmHg 88%
07:00 -17°C° 0 mm 5 m/s 734 mmHg 92%
08:00 -17°C° 0 mm 5 m/s 735 mmHg 92%
09:00 -17°C° 0 mm 5 m/s 736 mmHg 92%
10:00 -17°C° 0 mm 5 m/s 737 mmHg 92%
11:00 -15°C° 0 mm 5 m/s 737 mmHg 91%
12:00 -14°C° 0 mm 5 m/s 737 mmHg 91%
13:00 -14°C° 0 mm 5 m/s 737 mmHg 90%
14:00 -14°C° 0 mm 5 m/s 738 mmHg 90%
15:00 -14°C° 0 mm 4 m/s 738 mmHg 91%
16:00 -14°C° 0 mm 4 m/s 738 mmHg 91%
17:00 -15°C° 0 mm 4 m/s 738 mmHg 93%
18:00 -15°C° 0 mm 3 m/s 738 mmHg 94%
19:00 -17°C° 0 mm 3 m/s 738 mmHg 96%
20:00 -18°C° 0 mm 3 m/s 738 mmHg 96%
21:00 -17°C° 0 mm 2 m/s 738 mmHg 97%
22:00 -18°C° 0 mm 2 m/s 738 mmHg 97%
23:00 -18°C° 0 mm 2 m/s 738 mmHg 97%

10 Março, Quarta-feira

Tempo Temperatura Precipitação Vento Pressão Humidade
00:00 -16°C° 0 mm 1 m/s 738 mmHg 97%
01:00 -16°C° 0 mm 1 m/s 738 mmHg 97%
02:00 -16°C° 0 mm 1 m/s 738 mmHg 98%
03:00 -17°C° 0 mm 1 m/s 737 mmHg 98%
04:00 -17°C° 0 mm 1 m/s 737 mmHg 98%
05:00 -17°C° 0 mm 1 m/s 737 mmHg 98%
06:00 -17°C° 0 mm 1 m/s 737 mmHg 98%
07:00 -17°C° 0 mm 1 m/s 737 mmHg 98%
08:00 -18°C° 0 mm 2 m/s 738 mmHg 97%
09:00 -17°C° 0 mm 2 m/s 738 mmHg 95%
10:00 -17°C° 0 mm 3 m/s 738 mmHg 94%
11:00 -17°C° 0 mm 3 m/s 738 mmHg 93%
12:00 -18°C° 0 mm 4 m/s 739 mmHg 92%
13:00 -17°C° 0 mm 4 m/s 739 mmHg 91%
14:00 -17°C° 0 mm 4 m/s 739 mmHg 91%
15:00 -17°C° 0 mm 4 m/s 739 mmHg 91%
16:00 -18°C° 0 mm 4 m/s 739 mmHg 91%
17:00 -19°C° 0 mm 4 m/s 740 mmHg 93%
18:00 -20°C° 0 mm 4 m/s 740 mmHg 95%
19:00 -22°C° 0 mm 4 m/s 740 mmHg 97%
20:00 -23°C° 0 mm 4 m/s 741 mmHg 97%
21:00 -24°C° 0 mm 4 m/s 741 mmHg 98%
22:00 -25°C° 0 mm 4 m/s 742 mmHg 99%
23:00 -24°C° 0 mm 3 m/s 742 mmHg 99%

11 Março, Quinta-feira

Tempo Temperatura Precipitação Vento Pressão Humidade
00:00 -25°C° 0 mm 3 m/s 742 mmHg 99%
01:00 -26°C° 0 mm 3 m/s 742 mmHg 99%
02:00 -26°C° 0 mm 2 m/s 742 mmHg 99%
03:00 -26°C° 0 mm 2 m/s 743 mmHg 99%
04:00 -27°C° 0 mm 2 m/s 743 mmHg 99%
05:00 -27°C° 0 mm 2 m/s 743 mmHg 99%
06:00 -28°C° 0 mm 2 m/s 744 mmHg 99%
07:00 -27°C° 0 mm 1 m/s 744 mmHg 99%
08:00 -25°C° 0 mm 1 m/s 745 mmHg 98%
09:00 -23°C° 0 mm 1 m/s 745 mmHg 97%
10:00 -22°C° 0 mm 1 m/s 746 mmHg 96%
11:00 -21°C° 0 mm 1 m/s 746 mmHg 93%
12:00 -20°C° 0 mm 1 m/s 747 mmHg 91%
13:00 -19°C° 0 mm 1 m/s 747 mmHg 89%
14:00 -19°C° 0 mm 1 m/s 747 mmHg 90%
15:00 -18°C° 0 mm 1 m/s 747 mmHg 91%
16:00 -18°C° 0 mm 1 m/s 747 mmHg 92%
17:00 -20°C° 0 mm 0 m/s 747 mmHg 94%
18:00 -22°C° 0 mm 0 m/s 748 mmHg 97%
19:00 -24°C° 0 mm 0 m/s 748 mmHg 99%
20:00 -25°C° 0 mm 0 m/s 748 mmHg 99%
21:00 -25°C° 0 mm 0 m/s 749 mmHg 99%
22:00 -26°C° 0 mm 0 m/s 749 mmHg 99%
23:00 -26°C° 0 mm 0 m/s 749 mmHg 99%
Mostrar mais

Necessitamos do seu Consentimento

A Meteoprog e os seus Fornecedores de Serviços podem armazenar e aceder a dados pessoais como cookies, identificadores do dispositivo ou outras tecnologias semelhantes existentes no seu dispositivo e processar estes dados para personalizar conteúdos e anúncios, assim como funcionalidades nas redes sociais e análise de tráfego.

  • Armazenar e/ou aceder a informações no seu dispositivo

    Os cookies, identificadores do dispositivo ou outras informações podem ser armazenados ou acedidos no seu dispositivo, para os fins acima indicados.

  • Anúncios e conteúdos personalizados, medição de anúncios e conteúdos, dados sobre o público-alvo e desenvolvimento de produtos

    Os anúncios e os conteúdos podem ser personalizados com base num perfil. Podem ser adicionados dados adicionais para uma maior personalização dos anúncios e dos conteúdos. A eficácia dos anúncios e dos conteúdos pode ser medida. Podem ser obtidas informações sobre o público que visualizou os anúncios e os conteúdos. Estes dados podem ser usados para desenvolver ou melhorar sistemas, softwares ou a experiência do utilizador.

Ao clicar em "Eu concordo”, permitirá o uso de cookies, identificadores do dispositivo e web beacons mencionados ou outras tecnologias semelhantes. As configurações do navegador do seu dispositivo podem ser alteradas.

Para certos fins, podem ser invocados interesses legítimos ao invés de consentimento. Pode ler mais informação sobre este assunto na nossa Política de Privacidade e Cookies.